Location: Unspecified
(0.0000°N, 0.0000°E)
Time: 13:18:36
(UTC+00:00)

deb OV3-4 - Pass Details

Date: 21 June 2025
Orbit: 581 x 4212 km, 40.6° (Epoch: 19 July)

Event Time Altitude Azimuth Distance (km) Brightness Sun altitude
Rises 20:24:59 0° 314° (NW) 8,105 ? -32.4°
Reaches altitude 10° 20:30:14 10° 315° (NW) 7,272 ? -33.6°
Maximum altitude 20:56:46 89° 228° (SW) 3,817 ? -39.3°
Enters shadow 21:02:17 63° 137° (SE) 3,788 ? -40.5°
